Weather in Sredneargunsk

Russia / Zabaykalsky Krai     49°44′43″N   118°15′29″E
temp.,
°C
wind,
m/s
gust,
m/s
humid.,
%
clouds,
%
prec.,
mm/h
press.,
hPa
HPBL,
m
25 january, mon
mon2500:00−17ne4695100 0.0 1030113
03:00−17ne4696100 0.0 1028107
06:00−17ne5696100 0.1 1026121
09:00−18ne5895100 0.1 1023155
12:00−16ene71087100 0.0 1020337
15:00−14ene6792100 0.1 1015337
18:00−12ene4796100 1.0 1013175
21:00−14wnw4694100 2.1 1012186
26 january, tue
tue2600:00−16wnw71286100 0.1 1014466
03:00−22w6128879 0.1 1015315
06:00−22wnw8158421 0.0 1016400
09:00−23wnw8158112 0.0 1017409
12:00−21wnw912710 0.0 1019814
15:00−20wnw7117450 0.0 10191229
18:00−22w51081100 0.0 1020262
21:00−22wnw488998 0.0 1021223
27 january, wed
wed2700:00−22w4990100 0.0 1022217
03:00−22w4109099 0.0 1023216
06:00−23wnw6128798 0.0 1023269
09:00−25w348998 0.0 102563
12:00−22wnw478499 0.0 1026326
15:00−20nw5777100 0.0 1025547
18:00−23wnw4787100 0.0 1026157
21:00−25nw3389100 0.0 102846
28 january, thu
thu2800:00−26nw229099 0.0 102819
03:00−27nw338180 0.0 102928
06:00−28nnw228499 0.0 102919
09:00−29nw1186100 0.0 103019
12:00−25wnw137885 0.0 1031318
15:00−23nw356645 0.0 1030739
18:00−28wnw338714 0.0 103134
21:00−30wnw23867 0.0 103227
29 january, fri
fri2900:00−31wnw11851 0.0 103219
03:00−31wnw11840 0.0 103219
06:00−32w22840 0.0 103119
09:00−33w12850 0.0 103219
12:00−28wsw22760 0.0 1031228
15:00−25wsw23710 0.0 1029391
18:00−28wsw228314 0.0 102919
21:00−27wsw118457 0.0 102920